Location: Newark
(44.3248°N, 23.7839°E)
Time: 00:16:06
(UTC+00:00)

ITUPSAT 1 - Visible Passes

Search period start: 24 April 2024 00:00
Search period end: 04 May 2024 00:00
Orbit: 695 x 707 km, 98.5° (Epoch: 23 April)

Date Brightness Start Highest point End Pass type
(mag) Time Alt. Az. Time Alt. Az. Time Alt. Az.
24 Apr ? 19:17:11 10° NE 19:18:33 14° ENE 19:18:33 14° ENE visible
24 Apr ? 20:53:23 10° N 20:57:25 55° NW 20:57:25 55° NW visible
25 Apr ? 19:58:09 10° NNE 20:01:26 33° ENE 20:01:26 33° ENE visible
25 Apr ? 21:36:14 10° N 21:40:04 25° WNW 21:40:18 25° WNW visible
26 Apr ? 19:05:15 10° ENE 19:05:27 10° ENE 19:05:27 10° ENE visible
26 Apr ? 20:40:12 10° NNE 20:44:19 67° N 20:44:19 67° N visible
26 Apr ? 22:20:34 10° NW 22:21:50 11° WNW 22:23:05 10° WNW visible
27 Apr ? 19:45:15 10° NE 19:48:19 26° ENE 19:48:19 26° ENE visible
27 Apr ? 21:22:49 10° N 21:27:02 33° WNW 21:27:11 33° WNW visible
28 Apr ? 20:27:02 10° NNE 20:31:11 64° NE 20:31:11 64° NE visible
28 Apr ? 22:06:20 10° NNW 22:08:51 15° WNW 22:10:02 13° WNW visible
29 Apr ? 19:32:27 10° NE 19:35:11 20° ENE 19:35:11 20° ENE visible
29 Apr ? 21:09:28 10° N 21:13:56 43° WNW 21:14:02 43° WNW visible
30 Apr ? 20:13:55 10° NNE 20:18:02 51° ENE 20:18:02 51° ENE visible
30 Apr ? 21:52:35 10° NNW 21:55:51 19° WNW 21:56:53 18° W visible
01 May ? 19:19:50 10° NE 19:22:00 16° E 19:22:00 16° E visible
01 May ? 20:56:10 10° N 21:00:48 59° WNW 21:00:52 58° WNW visible
02 May ? 20:00:52 10° NNE 20:04:51 39° E 20:04:51 39° E visible
02 May ? 21:38:59 10° N 21:42:47 24° WNW 21:43:42 23° W visible
03 May ? 19:07:41 10° ENE 19:08:49 11° E 19:08:49 11° E visible
03 May ? 20:42:53 10° NNE 20:47:37 79° WNW 20:47:40 79° W visible
03 May ? 22:23:31 10° NW 22:24:29 11° WNW 22:25:27 10° WNW visible
